STARLINK-37624, 69833

Orbit data source: Space-Track

STARLINK-37624, 69833 is a payload satellite owned by SpaceX/Seattle (US) in LEO that was launched on Sun, 05 Jul 2026 UTC via an FALCON 9 launch vehicle from the Air Force Eastern Test Range (AFETR). Payload-class satellites include a variety of spacecraft equipped with specific instruments for various scientific and technological missions. These include communications satellites like Starlink; space stations such as the ISS; scientific satellites like the Hubble; Earth observation satellites from companies like Planet Labs, Umbra, and HawkEye 360; GPS; miniature CubeSats for education and research; and military/defense satellites.

Loading next visibility...
Identifier
69833, 2026-154Q
Orbit
LEO
Country
Flag of USUS
Related business
Manufacturer
SpaceX/Seattle
Mission
Operational spacecraft
Bus & Motor
STARLINK V2MO, Unknown motor
Mass
575 kg wet, ~530 kg dry
Launch date (UTC)
2026-07-05 (1 month ago)
Launch vehicle
FALCON 9
Launch site
Air Force Eastern Test Range (AFETR)
Object type
Payload
Rocket body
Debris
Shape & HBR
BOX + PAN, 17.7 m
Radar Cross Section
Large (>1 m²)

Expand to show TLE details & history
Last TLE update: 13 hours ago

TLE from 13 hours ago
0 STARLINK-37624
1 69833U 26154Q   26228.58335648 -.02332691  00000-0 -66190-1 0  9990
2 69833  53.1602 134.9741 0001500 111.4067  17.6000 15.39262847  6022
Epoch: 2026-08-16T14:00Z
TLE epoch observation values (Epoch: 2026-08-16T14:00:01.999Z)
Latitude
38.57741°
Longitude
103.52787°
Altitude
450.602 km
Speed
7.647 km/s
True Right ascension
18h 34m 03s
True Declination
38° 24' 08"
Sunlit
Object was in full shadow at epoch
Visualization orbit readout
Latitude
Unknown
Longitude
Unknown
Altitude
Unknown
Speed
Unknown
Apparent Right ascension
Unknown
Apparent Declination
Unknown
Sunlit
N/A
Visualization observer readout
Local Sidereal Time
17:14:57
Azimuth
Unknown
Elevation
Unknown
Doppler factor
Unknown
Orbital elements
Apogee altitude
449.569 km
Perigee altitude
447.521 km
Semi-major axis
6,826.682 km
Eccentricity
0.00015
Inclination
53.1602°
RAAN
134.9741°
Arg. of periapsis
111.4067°
True anomaly
17.6052°
Mean anomaly
17.6°
Eccentric anomaly
17.6026°
Mean motion
3.84794 °/min
Orbital period
93.56 mins
BSTAR
-0.06619
Loading maneuver chart data...
Computing Atmospheric mass density...
Loading historical data...
Loading historical data...
Loading historical data...
Loading historical data...
Loading historical data...
Loading historical data...
Loading historical data...

Documentation

Showing up to 5 results
|